Location: Unspecified
(45.3712°N, 0.6436°E)
Time: 12:48:59
(UTC+01:00)

Envisat - Visible Passes

Search period start: 19 February 2019 00:00
Search period end: 01 March 2019 00:00
Orbit: 764 x 766 km, 98.2° (Epoch: 19 February)

Date Brightness Start Highest point End Pass type
(mag) Time Alt. Az. Time Alt. Az. Time Alt. Az.
19 Feb 5.0 20:30:22 10° SSW 20:34:43 28° W 20:39:06 10° NW visible
20 Feb 6.7 07:00:08 10° ENE 07:01:23 11° E 07:02:39 10° E visible
20 Feb 3.6 19:52:46 10° S 19:57:46 60° W 20:02:49 10° NNW visible
21 Feb 3.0 19:16:01 10° SSE 19:21:01 65° ENE 19:26:05 10° N visible
21 Feb 5.8 20:57:17 10° SW 21:00:31 17° W 21:03:45 10° NW visible
22 Feb 4.6 20:18:48 10° SSW 20:23:25 35° W 20:28:05 10° NNW visible
23 Feb 3.2 19:41:28 10° S 19:46:32 75° WSW 19:51:39 10° NNW visible
24 Feb 3.2 19:04:56 10° SE 19:09:51 52° ENE 19:14:48 10° N visible
24 Feb 5.5 20:45:23 10° SW 20:49:11 21° W 20:53:00 10° NW visible
25 Feb 6.2 07:12:59 10° NE 07:15:56 15° E 07:18:52 10° SE visible
25 Feb 4.2 20:07:19 10° S 20:12:09 44° W 20:17:01 10° NNW visible
26 Feb 3.0 19:30:15 10° SSE 19:35:20 88° ENE 19:40:27 10° NNW visible
26 Feb 6.1 21:13:06 10° WSW 21:15:02 12° W 21:17:00 10° WNW visible
27 Feb 5.2 20:33:39 10° SSW 20:37:52 26° W 20:42:06 10° NW visible
28 Feb 6.6 07:02:38 10° ENE 07:04:34 12° E 07:06:30 10° ESE visible
28 Feb 3.8 19:55:56 10° S 20:00:54 55° W 20:05:54 10° NNW visible
